Location: Forges
(48.6294°N, 2.1026°E)
Time: 07:02:58
(UTC+00:00)

Daily predictions for brighter satellites

Satellite Brightness Start Highest point End
(mag) Time Altitude Azimuth Time Altitude Azimuth Time Altitude Azimuth
NOSS 3-1 (A) 4.3 17:48:26 10° NW 17:55:50 83° SW 18:04:37 10° SE
CZ-4C R/B 4.1 17:57:48 10° N 18:02:05 64° WNW 18:06:13 10° SSW
CZ-2C R/B 4.5 17:57:13 10° N 18:02:15 37° WNW 18:07:20 10° SW
NOSS 2-2 (D) 4.5 17:57:28 10° NW 18:02:21 76° SW 18:09:17 10° SSE
CZ-4 R/B 4.4 17:58:43 10° SSE 18:02:50 80° ENE 18:06:58 10° N
CZ-4B DEB 4.3 17:58:21 10° SSE 18:03:49 86° WSW 18:09:20 10° NNW
SL-16 R/B 3.9 18:07:13 10° ESE 18:08:16 10° E 18:09:19 10° E
USA 186 3.9 18:07:28 10° E 18:08:58 13° ENE 18:10:28 10° NE
USA 215 3.5 18:02:50 10° NE 18:09:22 74° NNW 18:15:52 10° WSW
Tsikada Rocket 4.5 18:05:53 10° SSW 18:12:17 72° W 18:18:43 10° N
SL-4 R/B 2.5 18:09:10 10° WNW 18:13:32 61° N 18:18:03 10° E
Cosmos 1844 Rocket 4.4 18:10:02 10° N 18:13:37 17° NE 18:17:12 10° ENE
ARGOS Delta rocket 4.2 18:10:16 10° NNE 18:15:30 52° E 18:20:28 10° S
Timation 2 Rocket 4.2 18:11:14 10° NNW 18:17:40 56° NE 18:23:46 10° SE
SKYMED 3 4.4 18:13:40 10° NNE 18:17:49 85° ESE 18:21:55 10° SSW
BREEZE-M DEB (TANK) 4.3 18:16:42 10° SW 18:21:06 54° SE 18:37:51 10° ENE
Okean O Rocket 1.7 18:17:56 10° SSE 18:22:10 53° ENE 18:26:26 10° N
Cosmos 2219 4.1 18:18:58 10° NW 18:24:35 55° WSW 18:30:10 10° S
Nadezhda 4 Rocket 4.5 18:19:14 10° SSE 18:24:58 38° E 18:30:42 10° NNE
Cosmos 1242 Rocket 2.4 18:24:12 10° S 18:27:45 69° E 18:31:18 10° NNE
Spot 1 3.9 18:24:37 10° NNE 18:28:56 80° ESE 18:33:02 10° SSW
BREEZE M DEB (TANK) 4.3 18:24:36 10° SSW 18:29:18 18° SSE 18:31:25 12° ESE
Cosmos 1809 Rocket 4.5 18:24:01 10° S 18:29:55 57° E 18:35:52 10° NNE
SL-14 R/B 3.3 18:26:47 10° N 18:30:42 60° ENE 18:34:37 10° SSE
Cosmos 2263 Rocket 2.3 18:26:25 10° NNW 18:32:06 62° ENE 18:37:44 10° SE
Cosmos 1805 3.1 18:30:43 10° S 18:34:33 69° E 18:38:26 10° NNE
Cosmos 2360 4.5 18:28:50 10° SSW 18:34:33 75° WNW 18:40:19 10° NNE
Cosmos 1674 Rocket 3.6 18:30:50 10° N 18:35:11 58° ENE 18:39:32 10° SSE
YAOGAN 1 2.5 18:31:40 10° SSE 18:36:00 85° ENE 18:40:20 10° NNW
Meteor 2-5 Rocket 4.4 18:32:06 10° N 18:37:02 31° ENE 18:41:16 13° SE
Cosmos 1726 2.3 18:34:45 10° SSE 18:38:14 45° E 18:41:45 10° NNE
COBE Rocket 3.9 18:33:23 10° SSE 18:38:18 85° WSW 18:43:06 10° NNW
OBJECT-B 1.4 18:38:57 23° E 18:39:22 24° ENE 18:41:33 10° NNE
H-2A R/B 4.2 18:39:27 14° ENE 18:39:56 14° ENE 18:41:56 10° NNE
Cosmos 2082 4.1 18:37:49 10° NNW 18:43:33 70° WSW 18:49:13 10° SSE
IRIDIUM 106 4.4 18:40:28 10° SSE 18:45:34 57° E 18:50:41 10° N
USA 267 4.4 18:40:00 10° SSE 18:46:05 41° SW 18:52:13 10° WNW
Cosmos 1766 3.4 18:44:45 10° SSE 18:48:31 48° E 18:52:19 10° NNE
Cosmos 1025 Rocket 4.3 18:47:19 10° NNE 18:50:38 21° ENE 18:51:18 20° E
Cosmos 1697 Rocket 3.4 18:46:59 10° SW 18:52:30 56° WNW 18:58:03 10° NNE
CSL-04 Debris 4.3 18:50:29 10° SE 18:55:43 53° ENE 19:00:58 10° N
Cosmos 2221 Rocket 4.1 18:53:10 10° NNW 18:57:39 64° W 19:02:08 10° S
Cosmos 1975 Rocket 4.0 18:56:13 10° N 19:00:02 27° ENE 19:00:50 26° E
ASTEX 1 4.4 18:55:30 10° N 19:00:18 50° WNW 19:05:06 10° SSW
Cosmos 1092 Rocket 4.4 18:56:08 10° SSE 19:01:57 41° E 19:07:46 10° NNE
Landsat 7 4.4 19:00:02 24° ESE 19:02:02 35° ENE 19:06:19 10° N
IGS 5A 3.7 18:59:48 23° SE 19:02:02 45° ENE 19:06:00 10° N
Cosmos 1378 Rocket 3.7 18:59:59 10° NNW 19:04:23 73° W 19:08:43 10° S
Resurs 01 Rocket 3.0 19:05:25 21° ENE 19:05:37 21° ENE 19:08:57 10° NNE
Cosmos 1733 4.5 19:05:10 10° SSW 19:08:45 42° WNW 19:12:21 10° N
Cosmos 968 Rocket 3.9 19:04:48 10° S 19:09:40 39° ESE 19:14:31 10° NE
Cosmos 1470 3.3 19:15:56 36° ENE 19:15:56 36° ENE 19:18:59 10° NNE
Cosmos 1733 Rocket 4.4 19:11:46 10° SSW 19:16:00 43° WNW 19:20:16 10° N
ISS -3.1 19:18:57 10° WNW 19:22:11 45° SSW 19:22:45 40° S
Cosmos 2084 4.2 19:18:42 10° WSW 19:22:22 44° NW 19:25:47 12° NNE
Cosmos 2322 Rocket 4.0 19:19:09 10° SSE 19:27:51 15° NE 19:29:00 10° NE
Ariane Rocket 4.2 19:25:15 24° ENE 19:25:15 24° ENE 19:29:14 10° N
CSL-04 Rocket 3.5 19:21:40 18° SSE 19:25:46 81° ENE 19:31:12 10° NNW
Okean-O 2.5 19:24:10 30° SSE 19:26:19 76° ENE 19:30:45 10° N
Resurs 1-3 3.6 19:26:17 42° SE 19:27:35 62° ENE 19:31:56 10° N
CZ-4 R/B 2.9 19:23:51 10° SSW 19:27:45 38° W 19:31:41 10° NNW
Gbstr 26 Del rocket 4.4 19:21:30 10° SW 19:29:09 73° SSE 19:34:41 23° ENE
SJ-6B 2.7 19:30:23 37° S 19:31:45 80° WSW 19:35:32 10° NNW
Cosmos 1570 Rocket 3.9 19:27:06 10° NNW 19:32:25 85° ENE 19:34:49 33° SSE
Cosmos 1980 Rocket 2.9 19:27:15 10° SW 19:32:45 53° NW 19:38:17 10° NNE
Meteor 1-12 Rocket 4.4 19:28:49 10° SSW 19:34:49 81° WNW 19:40:54 10° N
Meteor 2-21 Rocket 4.5 19:29:00 10° SSW 19:35:04 79° W 19:41:09 10° N
Cosmos 1627 Rocket 4.3 19:31:57 10° S 19:37:58 66° E 19:44:03 10° NNE
JB-3 4.2 19:34:19 10° NNE 19:38:24 70° E 19:38:37 68° SE
USA 186 2.6 19:40:04 40° SW 19:40:50 51° W 19:44:07 10° NNW
deb Chang Zheng 4 3.5 19:41:18 59° ENE 19:41:18 59° ENE 19:45:14 10° N
Cosmos 1428 Rocket 4.3 19:39:14 10° S 19:45:23 81° E 19:51:39 10° N
Cosmos 2195 Rocket 4.4 19:39:19 10° S 19:45:32 85° E 19:51:52 10° N
Cosmos 2278 3.9 19:42:21 10° SW 19:48:01 70° WNW 19:53:44 10° NNE
Meteor 1-24 Rocket 3.5 19:43:43 10° NNW 19:49:02 85° W 19:51:25 34° S
Cosmos 1437 Rocket 3.0 19:45:46 10° SSW 19:49:29 63° WNW 19:53:13 10° N
SL-16 R/B 2.1 19:45:38 10° SSW 19:51:14 66° ESE 19:56:53 10° NNE
USA 215 4.1 19:47:18 18° NE 19:51:56 45° N 19:58:05 10° WNW
SL-4 R/B 2.3 19:48:39 10° WNW 19:53:10 67° SSW 19:53:27 65° S
Cosmos 2208 Rocket 4.1 19:50:24 10° NNW 19:55:47 80° WSW 19:57:21 48° S
Cosmos 1844 Rocket 2.6 19:53:01 10° NNW 19:58:41 64° ENE 19:59:17 60° E
Okean O Rocket 4.3 19:55:47 10° SW 19:58:49 18° W 20:01:53 10° NW
Meteor 1-22 Rocket 4.2 19:55:25 10° SSW 20:00:48 79° WNW 20:06:25 10° N
USA 81 4.1 19:56:33 10° N 20:01:50 77° W 20:03:45 40° S
Landsat 5 4.5 19:57:35 10° N 20:01:58 51° WNW 20:06:17 10° SW
Cosmos 2278 Rocket 4.1 19:59:08 10° N 20:02:41 17° NE 20:03:03 16° NE
Cosmos 2026 Rocket 3.9 19:56:58 10° S 20:03:02 85° W 20:09:09 10° N
Cosmos 1782 Rocket 3.9 20:06:54 49° SW 20:07:52 63° WNW 20:12:12 10° N
Cosmos 1553 Rocket 3.9 20:02:13 10° N 20:08:34 74° E 20:09:43 60° SE
MOS 1 4.1 20:08:42 69° SE 20:09:20 79° ENE 20:15:01 10° NNW
OBJECT-B 3.7 20:09:48 12° W 20:09:48 12° W 20:10:42 10° WNW
H-2A R/B 3.3 20:15:56 45° NW 20:15:56 45° NW 20:18:46 10° NNW
Cosmos 2263 Rocket 4.2 20:11:04 10° NW 20:15:35 25° WSW 20:20:05 10° SSW
USA 281 3.8 20:16:22 38° ENE 20:16:42 39° NE 20:22:41 10° NNW
Cosmos 1844 3.6 20:14:43 10° NNW 20:20:06 77° NNE 20:20:06 77° NNE
Cosmos 1025 Rocket 4.1 20:24:21 10° NNW 20:28:10 42° W 20:28:10 42° W
MetOp-B 4.4 20:31:47 59° N 20:31:47 59° N 20:36:10 10° NNW
SPOT 1/Viking Rocket 3.7 20:32:06 68° WNW 20:32:06 68° WNW 20:36:58 10° NNW
Resurs 01 Rocket 2.9 20:42:59 38° NW 20:42:59 38° NW 20:46:07 10° NNW
Ariane Rocket 4.2 21:05:27 40° NW 21:05:27 40° NW 21:08:53 10° NNW
Terra 3.9 21:07:10 21° N 21:07:10 21° N 21:08:46 10° N
Cosmos 2322 Rocket 3.3 21:09:30 39° N 21:09:30 39° N 21:13:27 10° NNE
ATLAS 2AS CENTAUR R/B 4.0 21:01:42 10° NW 21:08:00 30° NNE 21:09:00 29° NE
NOSS 3-4 (A) 4.1 21:12:48 10° NW 21:18:30 60° N 21:18:30 60° N
NOSS 3-4 (C) 4.1 21:12:55 10° NW 21:18:36 60° N 21:18:36 60° N
USA 215 4.0 21:34:39 47° N 21:34:39 47° N 21:40:28 10° WNW
SL-16 R/B 4.0 21:31:03 10° WSW 21:35:50 27° NW 21:40:38 10° NNE
Cosmos 2278 Rocket 4.0 21:42:18 10° NNW 21:44:53 27° NNW 21:44:53 27° NNW
Cosmos 1943 Rocket 4.4 21:53:04 10° NNW 21:54:57 19° N 21:54:57 19° N
USA 281 4.3 22:03:15 39° WNW 22:03:15 39° WNW 22:07:27 10° NNW
ATLAS 2AS CENTAUR R/B 4.3 22:53:00 10° NW 22:56:24 30° NNW 22:56:24 30° NNW
